This demonstration page uses our WeatherBlox Daily Observations layout. Learn more.

Left ArrowRight Arrow

38.20091, -84.87328

Hourly Observations for April 5, 2022

Temp ( °F °C ) Dew Point ( °F °C ) Humidity (%) Winds ( mph kmh ) Pressure ( in mb ) Visibility ( mi km ) Precip ( " mm )
12:53 am 00:53 Cloudy with Light Rain 51 10.6 48 8.9 89 89 SSW 6 9 29.89 1012 5 8 0.04 1.02
1:53 am 01:53 Cloudy with Rain 50 10 49 9.4 96 96 S 3 6 29.88 1012 5 8 0.07 1.78
2:18 am 02:18 Cloudy with Light Rain 50 10 49 9.4 96 96 SSE 3 6 29.89 1012 9 14 0.03 0.76
2:53 am 02:53 Cloudy with Light Rain 50 10 49 9.4 96 96 Calm 29.86 1011 7 11 0.08 2.03
3:53 am 03:53 Cloudy with Light Rain 50 10 49 9.4 96 96 Calm 29.85 1011 5 8 0.03 0.76
4:53 am 04:53 Cloudy with Mist and Fog 50 10 49 9.4 96 96 Calm 29.84 1010 6 10 0.02 0.51
5:36 am 05:36 Mostly Cloudy with Mist and Fog 50 10 49 9.4 96 96 NNE 3 6 29.84 1010 4 6 0.00 0.00
5:53 am 05:53 Cloudy with Mist and Fog 50 10 49 9.4 96 96 ENE 5 7 29.81 1010 3 5 0.00 0.00
5:57 am 05:57 Cloudy with Mist and Fog 50 10 49 9.4 96 96 E 5 7 29.83 1010 2 3 0.00 0.00
6:09 am 06:09 Cloudy with Mist and Fog 50 10 49 9.4 96 96 N 5 7 29.83 1010 3 5 0.00 0.00
6:38 am 06:38 Cloudy with Mist and Fog 50 10 49 9.4 96 96 N 3 6 29.84 1010 6 10 0.00 0.00
6:53 am 06:53 Cloudy with Mist and Fog 50 10 49 9.4 96 96 NE 3 6 29.81 1010 5 8 0.00 0.00
7:53 am 07:53 Cloudy with Mist and Fog 51 10.6 49 9.4 92 92 Calm 29.83 1010 5 8 0.00 0.00
8:51 am 08:51 Cloudy with Light Rain 52 11 50 10 94 94 SE 5 7 29.84 1010 3 4 0.01 0.25
8:53 am 08:53 Cloudy with Light Rain 51 10.6 50 10 96 96 SE 5 7 29.82 1010 3 4 0.01 0.25
9:12 am 09:12 Cloudy with Light Rain 51 10.6 50 10 96 96 ESE 7 11 29.82 1010 3 5 0.01 0.25
9:53 am 09:53 Sunny with Mist and Fog 53 11.7 51 10.6 93 93 E 3 6 29.79 1009 6 10 0.01 0.25
10:53 am 10:53 Cloudy with Light Rain 54 12.2 51 10.6 90 90 ESE 6 9 29.78 1009 7 11 0.01 0.25
11:53 am 11:53 Cloudy 55 12.8 52 11.1 90 90 ESE 6 9 29.76 1008 10 16 0.00 0.00
12:53 pm 12:53 Cloudy with Light Rain 56 13.3 53 11.7 90 90 E 5 7 29.73 1007 5 8 0.02 0.51
1:53 pm 13:53 Cloudy with Light Rain 56 13.3 53 11.7 90 90 ESE 6 9 29.72 1006 7 11 0.05 1.27
2:53 pm 14:53 Cloudy with Light Rain 56 13.3 54 12.2 93 93 ENE 5 7 29.68 1005 7 11 0.04 1.02
3:53 pm 15:53 Cloudy 56 13.3 54 12.2 93 93 NNE 6 9 29.63 1004 9 14 0.01 0.25
4:53 pm 16:53 Cloudy with Rain 55 12.8 53 11.7 93 93 NE 6 9 29.62 1003 4 6 0.07 1.78
5:53 pm 17:53 Cloudy with Light Rain 54 12.2 51 10.6 90 90 NE 8 13 29.62 1003 5 8 0.08 2.03
6:53 pm 18:53 Cloudy with Light Rain 54 12.2 51 10.6 90 90 NE 8 13 29.60 1003 10 16 0.03 0.76
7:53 pm 19:53 Cloudy 54 12.2 51 10.6 90 90 N 6 9 29.62 1003 10 16 0.01 0.25
8:53 pm 20:53 Mostly Clear 53 11.7 51 10.6 93 93 NNE 3 6 29.63 1003 10 16 0.00 0.00
9:43 pm 21:43 Mostly Clear with Mist and Fog 50 10 49 9.4 96 96 Calm 29.66 1004 2 2 0.00 0.00
9:53 pm 21:53 Mostly Cloudy with Mist and Fog 48 8.9 48 8.9 100 100 Calm 29.65 1004 1 2 0.00 0.00
9:58 pm 21:58 Mostly Cloudy with Mist and Fog 48 8.9 48 8.9 100 100 Calm 29.67 1005 3 5 0.00 0.00
10:37 pm 22:37 Cloudy 50 10 49 9.4 96 96 Calm 29.68 1005 7 11 0.00 0.00
10:53 pm 22:53 Cloudy with Mist and Fog 50 10 49 9.4 96 96 NW 3 6 29.67 1005 6 10 0.00 0.00
11:45 pm 23:45 Mostly Cloudy with Mist and Fog 49 9.4 48 8.9 97 97 Calm 29.68 1005 2 3 0.00 0.00
11:53 pm 23:53 Mostly Cloudy with Mist and Fog 48 8.9 47 8.3 96 96 Calm 29.67 1005 1 2 0.00 0.00
11:57 pm 23:57 Partly Cloudy with Fog 48 8.9 47 8.3 96 96 Calm 29.68 1005 1 1 0.00 0.00

Powered by AerisWeather